Weather Roundup
Issued by NWS

Home | Current Version | Previous Version | Text Only | Print | Product List | Glossary On
Versions: 1 2 3 4 5 6 7 8 9 10 11 12 13 14 15 16 17 18 19 20 21 22 23 24 25 26 27 28 29 30 31 32 33 34 35 36 37 38 39 40 41 42 43 44 45 46 47 48 49 50
000
NZUS93 KARX 222159
HRRWXR

CURRENT HOURLY OBSERVATIONS ACROSS
MUCH OF THE UPPER MISSISSIPPI VALLEY
NATIONAL WEATHER SERVICE LA CROSSE WI
500 PM CDT TUE JUL 22 2014


...SOUTHEAST MINNESOTA...


CITY           SKY/WX    TMP DP  RH WIND       PRES   REMARKS
ROCHESTER      MOSUNNY   81  67  62 NW9       30.06R
ROCHESTER/MAYO MOCLDY    82  61  49 W13G21    30.05R
WINONA         SUNNY     84  64  51 NW13G18   30.00R
AUSTIN         MOSUNNY   84  63  48 W14       30.06R
ALBERT LEA     MOSUNNY   82  64  54 NW10      30.07S
DODGE CENTER   MOSUNNY   81  66  61 NW13      30.07R
PRESTON        SUNNY     81  72  73 NW14      30.04S
OWATONNA       MOSUNNY   82  63  51 N9        30.07S
FARIBAULT      MOSUNNY   86  55  35 NW9       30.07R
$$

...ELSEWHERE IN MINNESOTA...


CITY           SKY/WX    TMP DP  RH WIND       PRES   REMARKS
MINNEAPOLIS    MOSUNNY   86  56  35 N12       30.05R
INTNL FALLS    MOSUNNY   76  54  46 NW10      30.09R
DULUTH         MOSUNNY   78  56  46 NW13G21   30.05R
RED WING       MOSUNNY   84  59  42 NW9G16    30.02S
REDWOOD FALLS  MOSUNNY   82  57  42 NW15G22   30.12R
MANKATO        MOSUNNY   82  61  47 NW12G18   30.08R
WORTHINGTON    SUNNY     79  61  53 N9        30.17S
FAIRMONT       MOSUNNY   82  61  47 NW12      30.11R
$$

...SOUTHWEST WISCONSIN...


CITY           SKY/WX    TMP DP  RH WIND       PRES   REMARKS
LA CROSSE      SUNNY     88  66  48 NW15      29.97S HX  90
PRAIRIE DU CHI SUNNY     91  67  45 NW14      29.93S HX  94
BOSCOBEL       MOSUNNY   94  73  50 NW13G20   29.93R HX 103
LONE ROCK      NOT AVBL
PLATTEVILLE    MOSUNNY   90  75  59 W9        29.96R HX 100
FORT MC COY    SUNNY     86  63  46 NW12G18   29.98S
VIROQUA        FAIR      84  69  61 NW12G21   30.00S
WIS DELLS      PTSUNNY   91  68  47 NW12G18   29.93S HX  94
$$

...ELSEWHERE IN WISCONSIN...


CITY           SKY/WX    TMP DP  RH WIND       PRES   REMARKS
MILWAUKEE      PTSUNNY   88  74  63 W13G22    29.90F HX  96
MADISON        MOSUNNY   92  73  53 W9        29.91F HX 100
GREEN BAY      SUNNY     90  67  46 NW15      29.89R HX  93
EAU CLAIRE     NOT AVBL
BLACK RVR FLS  FAIR      87  63  44 NW8       29.97S
MEDFORD        CLOUDY    74  64  69 NW9       30.02R
WAUSAU         PTSUNNY   82  65  56 N16G24    29.96R
WIS RAPIDS     MOSUNNY   87  66  49 NW17      29.98R
MARSHFIELD     MOSUNNY   81  65  58 NW18      29.99R
RICE LAKE      MOSUNNY   81  60  49 NW9G18    30.04S
$$

...NORTHEAST IOWA...


CITY           SKY/WX    TMP DP  RH WIND       PRES   REMARKS
WATERLOO       MOSUNNY   88  66  48 NW15      29.99R HX  90
DUBUQUE        MOSUNNY   88  78  72 W10       29.96S HX 101
DECORAH        SUNNY     84  70  61 NW12G21   30.00R
MASON CITY     MOSUNNY   84  68  58 NW13      30.06S
CHARLES CITY   SUNNY     84  70  61 N14       30.03S
OELWEIN        SUNNY     88  72  58 N15G21    29.99S HX  94
$$

...ELSEWHERE IN IOWA...


CITY           SKY/WX    TMP DP  RH WIND       PRES   REMARKS
DES MOINES     MOSUNNY   91  74  57 N12       30.01S HX 100
IOWA CITY      MOSUNNY   89  79  72 W10       29.98S HX 104
FORT DODGE     MOSUNNY   82  66  57 N8G16     30.09R
MARSHALLTOWN   MOSUNNY   88  73  61 NW14      30.00F HX  95
CEDAR RAPIDS   MOSUNNY   87  78  74 W12       29.98R HX 100
$$

...NORTHERN ILLINOIS...


CITY           SKY/WX    TMP DP  RH WIND       PRES   REMARKS
CHICAGO-OHARE  CLOUDY    88  71  57 W10       29.94R HX  94
DUPAGE         MOSUNNY   90  74  59 SW15      29.95F HX  99
CHICAGO-MIDWAY CLOUDY    89  74  60 SW15      29.95R HX  98
MOLINE         PTSUNNY   84  77  79 W6        29.96R HX  94
ROCKFORD       MOSUNNY   89  77  67 SW7       29.94F HX 101
STERLING       MOSUNNY   90  79  70 W3        29.94F HX 105
PEORIA         PTSUNNY   87  73  62 SW10      30.01R HX  94
$$

NOTE: "FAIR" INDICATES FEW OR NO CLOUDS BELOW 12,000 FEET WITH NO
SIGNIFICANT WEATHER AND/OR OBSTRUCTIONS TO VISIBILITY. WIND
SPEEDS ARE IN MILES-PER-HOUR.



USA.gov is the U.S. government's official web portal to all federal, state and local government web resources and services.